DW7816 Weather Reports


Display with metric or nautical units.
time (UTC)temp
F
wind
direction
speed
MPH
gust
MPH
rain 1hr
in
rain 24hr
in
rain mn
in
humidity
%
barometer
mb
20260504050408 57 274 0.0 2.0 0.00 0.00 0.00 81 1011.7
20260504045429 57 216 0.0 3.0 0.00 0.00 0.00 82 1011.8
20260504044405 56 208 0.0 2.0 0.00 0.00 0.00 82 1011.8
20260504043333 56 227 0.0 0.0 0.00 0.00 0.00 83 1011.9
20260504042321 56 227 0.0 0.0 0.00 0.00 0.00 81 1012.1
20260504041313 56 242 0.0 1.0 0.00 0.00 0.00 83 1012.1
20260504040248 57 215 0.0 1.0 0.00 0.00 0.00 82 1012.2
20260504035247 56 244 0.0 0.0 0.00 0.00 0.00 81 1012.3
20260504034255 56 221 0.0 0.0 0.00 0.00 0.00 82 1012.3
20260504033254 56 221 0.0 0.0 0.00 0.00 0.00 83 1012.4
20260504032232 56 248 0.0 0.0 0.00 0.00 0.00 82 1012.5
20260504031215 56 248 0.0 0.0 0.00 0.00 0.00 83 1012.4
20260504025103 57 248 0.0 0.0 0.00 0.00 0.00 81 1012.5
20260504024030 58 271 0.0 0.0 0.00 0.00 0.00 80 1012.4
20260504023043 58 271 0.0 0.0 0.00 0.00 0.00 78 1012.3
20260504022106 59 271 0.0 0.0 0.00 0.00 0.00 77 1012.3
20260504021114 60 271 0.0 0.0 0.00 0.00 0.00 75 1012.4
20260504015036 62 271 0.0 0.0 0.00 0.00 0.00 71 1012.2
20260504014100 63 271 0.0 0.0 0.00 0.00 0.00 69 1012.2
20260504013039 64 271 0.0 0.0 0.00 0.00 0.00 67 1012.1
20260504012007 65 271 0.0 0.0 0.00 0.00 0.00 64 1012.0
20260504010959 67 271 0.0 0.0 0.00 0.00 0.00 62 1012.1
20260504005955 68 290 0.0 0.0 0.00 0.00 0.00 61 1012.0
20260504004952 70 228 0.0 0.0 0.00 0.00 0.00 57 1012.1
20260504004014 71 228 0.0 1.0 0.00 0.00 0.00 55 1012.1
20260504003020 72 248 0.0 1.0 0.00 0.00 0.00 53 1012.1
20260504000849 73 260 0.0 2.0 0.00 0.00 0.00 52 1012.3
20260503235836 74 262 0.0 0.0 0.00 0.00 0.00 50 1012.2
20260503234815 75 278 1.0 6.0 0.00 0.00 0.00 46 1012.3
20260503233757 76 292 2.0 7.0 0.00 0.00 0.00 45 1012.4
20260503232803 76 331 2.0 11.0 0.00 0.00 0.00 44 1012.4
20260503231748 77 224 3.0 11.0 0.00 0.00 0.00 43 1012.4
20260503230715 77 270 2.0 11.0 0.00 0.00 0.00 44 1012.3
20260503225720 77 283 2.0 11.0 0.00 0.00 0.00 42 1012.4
20260503223605 78 301 2.0 10.0 0.00 0.00 0.00 41 1012.5
20260503222628 78 131 2.0 10.0 0.00 0.00 0.00 42 1012.7
20260503221650 78 306 2.0 10.0 0.00 0.00 0.00 42 1012.8
20260503220648 79 267 3.0 14.0 0.00 0.00 0.00 44 1013.0
20260503215623 79 321 3.0 11.0 0.00 0.00 0.00 41 1013.0
20260503214634 78 277 3.0 14.0 0.00 0.00 0.00 43 1013.2
20260503213619 78 304 4.0 14.0 0.00 0.00 0.00 39 1013.3
20260503211428 79 312 2.0 15.0 0.00 0.00 0.00 47 1013.6
20260503205250 78 304 5.0 14.0 0.00 0.00 0.00 43 1014.0
20260503201911 78 298 4.0 12.0 0.00 0.00 0.00 40 1014.3
20260503200912 78 298 3.0 9.0 0.00 0.00 0.00 44 1014.7
20260503195929 77 344 3.0 9.0 0.00 0.00 0.00 45 1014.7
20260503193802 76 305 3.0 12.0 0.00 0.00 0.00 50 1015.4
20260503192814 76 248 3.0 12.0 0.00 0.00 0.00 51 1015.6
20260503191816 76 286 3.0 14.0 0.00 0.00 0.00 49 1015.7
20260503190837 76 311 3.0 14.0 0.00 0.00 0.00 46 1015.9
20260503185853 75 5 4.0 11.0 0.00 0.00 0.00 53 1016.0
20260503184844 74 294 3.0 9.0 0.00 0.00 0.00 50 1016.2
20260503183820 74 306 4.0 13.0 0.00 0.00 0.00 48 1016.4
20260503181622 73 346 2.0 11.0 0.00 0.00 0.00 55 1016.8
20260503180548 73 309 4.0 11.0 0.00 0.00 0.00 51 1017.1
20260503173247 71 253 4.0 16.0 0.00 0.00 0.00 53 1017.8
20260503172250 71 287 4.0 16.0 0.00 0.00 0.00 58 1018.0
20260503171236 70 297 2.0 10.0 0.00 0.00 0.00 56 1018.2
20260503170256 70 175 2.0 8.0 0.00 0.00 0.00 56 1018.3
20260503150958 62 321 2.0 7.0 0.00 0.00 0.00 60 1019.5
20260503130841 47 202 0.0 3.0 0.00 0.00 0.00 92 1020.1
20260503110420 36 36 0.0 0.0 0.00 0.00 0.00 97 1020.0
20260503100208 36 36 0.0 0.0 0.00 0.00 0.00 96 1019.9
20260503080948 37 36 0.0 0.0 0.00 0.00 0.00 96 1020.5
20260503072934 37 36 0.0 0.0 0.00 0.00 0.00 96 1020.7
20260503071939 37 36 0.0 0.0 0.00 0.00 0.00 96 1020.8